Thunderstorms From: 25-05-2018 05:05 Until: 26-05-2018 05:00 warning for: Thunderstorms Level: Yellow info button

Although rather usual in this region, locally or potentially dangerous phenomena are expected. (such as local winds, summer thunderstorms, rising streams or high waves) Be aware and pay attention to the latest weather updates, especially if you carry out activities exposed to weather or close to a stream or shoreline. 


Meteo18 Weather Cam more information Meteo18 Weather Cam


warning for Thunderstorms more information blitzortung!


Rain radar more information rain snow radar


Visit our other weather sites:

Template documentation
and downloads

And another site



Weather Underground History page Text

Daily Summary for January 16, 2018 Units:  Metric    English   Both
« Previous Day
Next Day »
Daily Weekly Monthly Yearly Custom
  High: Low: Average:
Temperature: -17.8 °C -13.8 °C -12.6 °C
Dew Point: -17.8 °C -15.3 °C -13.8 °C
Humidity: Humidity % 73 % 87 %
Wind Speed: 0 km/h 7.6 km/h 30.3 km/h
Wind Gust: 0 km/h - -
Wind:- - WSW
Pressure: 0 hPa 34039.5 hPa -
Precipitation: 226.06 mm    
Historical Graphs
 
 
Tabular Data for January 16, 2018
Time Temperature Dew Point Pressure Wind Wind Speed Wind Gust Humidity Rainfall Rate (Hourly)
-17.8 °C -17.8 °C 0 hPa Calm     Humidity % 0 mm
00:02 -12.8 °C -13.3 °C 34120.7 hPa West 26.2 km/h 36.2 km/h 94 % 7.62 mm
00:08 -12.8 °C -13.3 °C 34120.7 hPa WSW 20.9 km/h 41.4 km/h 94 % 7.62 mm
00:14 -12.8 °C -13.3 °C 34120.7 hPa SW 17.9 km/h 41.4 km/h 94 % 7.62 mm
00:26 -12.8 °C -13.3 °C 34130.9 hPa West 33.6 km/h 36.2 km/h 94 % 7.62 mm
00:32 -12.8 °C -13.3 °C 34130.9 hPa SW 31.4 km/h 44.1 km/h 94 % 7.62 mm
00:38 -12.7 °C -13.2 °C 34120.7 hPa SW 33.6 km/h 44.1 km/h 94 % 7.62 mm
00:44 -12.7 °C -13.2 °C 34130.9 hPa WSW 41.7 km/h 49.2 km/h 94 % 0 mm
00:50 -12.7 °C -13.3 °C 34120.7 hPa WSW 20.9 km/h 51.8 km/h 93 % 7.62 mm
00:56 -12.7 °C -13.2 °C 34120.7 hPa SW 26.2 km/h 44.1 km/h 94 % 7.62 mm
01:02 -12.7 °C -13.2 °C 34107.2 hPa SW 20.9 km/h 46.7 km/h 94 % 7.62 mm
01:13 -12.8 °C -13.3 °C 34107.2 hPa SW 33.6 km/h 38.8 km/h 94 % 12.7 mm
01:23 -12.8 °C -13.3 °C 34107.2 hPa WNW 7.6 km/h 41.4 km/h 94 % 12.7 mm
01:29 -12.8 °C -13.3 °C 34107.2 hPa SSW 17.9 km/h 38.8 km/h 94 % 12.7 mm
01:35 -12.8 °C -13.3 °C 34097 hPa WSW 15.6 km/h 44.1 km/h 94 % 12.7 mm
01:45 -12.8 °C -13.3 °C 34097 hPa WSW 33.6 km/h 49.2 km/h 94 % 12.7 mm
01:51 -12.8 °C -13.3 °C 34086.9 hPa SW 23 km/h 31.1 km/h 94 % 20.32 mm
01:57 -12.8 °C -13.2 °C 34086.9 hPa SSW 26.2 km/h 31.1 km/h 95 % 25.4 mm
02:03 -12.8 °C -13.2 °C 34086.9 hPa West 12.7 km/h 28.5 km/h 95 % 38.1 mm
02:09 -12.8 °C -13.2 °C 34086.9 hPa WSW 23 km/h 51.8 km/h 95 % 45.72 mm
02:23 -12.7 °C -13.3 °C 34073.3 hPa WSW 41.7 km/h 62.1 km/h 93 % 45.72 mm
02:29 -12.6 °C -13.2 °C 34086.9 hPa West 26.2 km/h 49.2 km/h 93 % 45.72 mm
02:35 -12.6 °C -13.2 °C 34086.9 hPa WSW 46.3 km/h 54.4 km/h 93 % 45.72 mm
02:41 -12.7 °C -13.3 °C 34086.9 hPa SW 33.6 km/h 41.4 km/h 93 % 50.8 mm
02:49 -12.7 °C -13.3 °C 34086.9 hPa WSW 26.2 km/h 38.8 km/h 93 % 38.1 mm
02:55 -12.7 °C -13.3 °C 34086.9 hPa SW 23 km/h 57 km/h 92 % 33.02 mm
03:01 -12.7 °C -13.3 °C 34086.9 hPa WSW 20.9 km/h 41.4 km/h 92 % 25.4 mm
03:07 -12.6 °C -13.3 °C 34073.3 hPa WSW 28.5 km/h 72.6 km/h 92 % 7.62 mm
03:13 -12.7 °C -13.3 °C 34086.9 hPa WSW 26.2 km/h 49.2 km/h 93 % 12.7 mm
03:19 -12.7 °C -13.3 °C 34086.9 hPa WSW 36.5 km/h 49.2 km/h 93 % 12.7 mm
03:27 -12.8 °C -13.3 °C 34086.9 hPa SW 20.9 km/h 41.4 km/h 94 % 12.7 mm
03:41 -12.8 °C -13.3 °C 34086.9 hPa SW 31.4 km/h 49.2 km/h 94 % 20.32 mm
03:47 -12.8 °C -13.3 °C 34086.9 hPa WSW 33.6 km/h 49.2 km/h 94 % 20.32 mm
03:57 -12.8 °C -13.4 °C 34097 hPa WSW 26.2 km/h 57 km/h 93 % 20.32 mm
04:03 -12.7 °C -13.4 °C 34097 hPa WSW 26.2 km/h 44.1 km/h 92 % 20.32 mm
04:09 -12.7 °C -13.5 °C 34107.2 hPa West 28.5 km/h 49.2 km/h 91 % 20.32 mm
04:15 -12.7 °C -13.5 °C 34107.2 hPa WSW 28.5 km/h 38.8 km/h 91 % 12.7 mm
04:27 -12.8 °C -13.4 °C 34097 hPa WSW 23 km/h 33.6 km/h 92 % 12.7 mm
04:33 -12.8 °C -13.5 °C 34086.9 hPa WSW 26.2 km/h 41.4 km/h 92 % 7.62 mm
04:39 -12.9 °C -13.6 °C 34097 hPa South 17.9 km/h 41.4 km/h 92 % 0 mm
04:45 -12.9 °C -13.6 °C 34097 hPa WSW 20.9 km/h 33.6 km/h 92 % 0 mm
04:51 -12.9 °C -13.6 °C 34097 hPa WSW 17.9 km/h 31.1 km/h 93 % 0 mm
04:57 -13 °C -13.5 °C 34097 hPa SSW 31.4 km/h 31.4 km/h 94 % 7.62 mm
05:07 -13 °C -13.4 °C 34097 hPa West 10.3 km/h 46.7 km/h 95 % 20.32 mm
05:13 -13 °C -13.4 °C 34097 hPa WSW 15.6 km/h 51.8 km/h 95 % 20.32 mm
05:21 -12.9 °C -13.4 °C 34097 hPa SSW 20.9 km/h 36.2 km/h 94 % 20.32 mm
05:27 -12.9 °C -13.4 °C 34086.9 hPa SW 20.9 km/h 41.4 km/h 94 % 20.32 mm
05:33 -12.9 °C -13.4 °C 34086.9 hPa SW 31.4 km/h 51.8 km/h 94 % 20.32 mm
05:43 -12.9 °C -13.5 °C 34086.9 hPa WSW 20.9 km/h 51.8 km/h 93 % 20.32 mm
05:49 -12.8 °C -13.4 °C 34086.9 hPa WSW 20.9 km/h 38.8 km/h 93 % 20.32 mm
05:55 -12.8 °C -13.5 °C 34097 hPa WSW 26.2 km/h 36.2 km/h 92 % 20.32 mm
06:03 -12.8 °C -13.4 °C 34097 hPa West 26.2 km/h 36.2 km/h 93 % 7.62 mm
06:09 -12.8 °C -13.4 °C 34086.9 hPa WSW 26.2 km/h 36.2 km/h 93 % 7.62 mm
06:15 -12.9 °C -13.5 °C 34086.9 hPa WSW 33.6 km/h 38.8 km/h 93 % 7.62 mm
06:21 -12.9 °C -13.5 °C 34086.9 hPa West 15.6 km/h 36.2 km/h 93 % 12.7 mm
06:27 -12.9 °C -13.4 °C 34086.9 hPa SW 20.9 km/h 38.8 km/h 94 % 12.7 mm
06:39 -13 °C -13.5 °C 34086.9 hPa WSW 20.9 km/h 31.1 km/h 94 % 20.32 mm
06:45 -13 °C -13.5 °C 34086.9 hPa West 20.9 km/h 31.1 km/h 94 % 20.32 mm
06:51 -13.1 °C -13.6 °C 34086.9 hPa WSW 23 km/h 38.8 km/h 94 % 25.4 mm
06:57 -13.1 °C -13.6 °C 34073.3 hPa West 20.9 km/h 38.8 km/h 94 % 25.4 mm
07:03 -13.1 °C -13.6 °C 34073.3 hPa West 31.4 km/h 46.7 km/h 94 % 25.4 mm
07:09 -13 °C -13.6 °C 34086.9 hPa WSW 17.9 km/h 59.5 km/h 93 % 20.32 mm
07:15 -12.9 °C -13.6 °C 34073.3 hPa West 17.9 km/h 46.7 km/h 93 % 20.32 mm
07:21 -12.9 °C -13.6 °C 34086.9 hPa WSW 12.7 km/h 38.8 km/h 93 % 12.7 mm
07:27 -12.9 °C -13.5 °C 34086.9 hPa West 31.4 km/h 36.2 km/h 93 % 12.7 mm
07:33 -12.9 °C -13.4 °C 34073.3 hPa WSW 26.2 km/h 46.7 km/h 94 % 12.7 mm
07:39 -12.9 °C -13.4 °C 34073.3 hPa SW 15.6 km/h 38.8 km/h 94 % 12.7 mm
07:49 -12.9 °C -13.3 °C 34073.3 hPa SW 23 km/h 36.2 km/h 95 % 12.7 mm
07:57 -12.8 °C -13.3 °C 34073.3 hPa West 44.1 km/h 75.2 km/h 94 % 7.62 mm
08:03 -12.7 °C -13.3 °C 34073.3 hPa West 31.4 km/h 46.7 km/h 93 % 7.62 mm
08:15 -12.7 °C -13.3 °C 34086.9 hPa West 26.2 km/h 62.1 km/h 93 % 7.62 mm
08:21 -12.7 °C -13.3 °C 34097 hPa WSW 26.2 km/h 51.8 km/h 93 % 7.62 mm
08:27 -12.7 °C -13.3 °C 34097 hPa SW 33.6 km/h 62.1 km/h 93 % 7.62 mm
08:33 -12.7 °C -13.3 °C 34097 hPa WSW 33.6 km/h 57 km/h 93 % 0 mm
08:39 -12.7 °C -13.3 °C 34097 hPa SW 44.1 km/h 46.7 km/h 92 % 0 mm
08:45 -12.6 °C -13.3 °C 34097 hPa SW 41.7 km/h 51.8 km/h 92 % 0 mm
08:51 -12.6 °C -13.4 °C 34097 hPa SW 31.4 km/h 59.5 km/h 91 % 0 mm
08:57 -12.6 °C -13.3 °C 34097 hPa WSW 31.4 km/h 44.1 km/h 92 % 0 mm
09:03 -12.6 °C -13.3 °C 34097 hPa West 33.6 km/h 46.7 km/h 92 % 0 mm
09:13 -12.6 °C -13.4 °C 34097 hPa West 17.9 km/h 46.7 km/h 91 % 0 mm
09:19 -12.6 °C -13.4 °C 34107.2 hPa WSW 26.2 km/h 44.1 km/h 91 % 0 mm
09:29 -12.6 °C -13.3 °C 34107.2 hPa SW 31.4 km/h 46.7 km/h 91 % 0 mm
09:35 -12.6 °C -13.4 °C 34107.2 hPa West 31.4 km/h 51.8 km/h 91 % 0 mm
09:41 -12.7 °C -13.3 °C 34107.2 hPa West 46.3 km/h 59.5 km/h 92 % 7.62 mm
09:53 -12.7 °C -13.3 °C 34107.2 hPa SSW 23 km/h 38.8 km/h 93 % 12.7 mm
09:59 -12.7 °C -13.3 °C 34120.7 hPa West 44.1 km/h 46.7 km/h 93 % 12.7 mm
10:05 -12.7 °C -13.3 °C 34107.2 hPa WSW 49.2 km/h 49.2 km/h 93 % 12.7 mm
10:13 -12.7 °C -13.3 °C 34130.9 hPa West 44.1 km/h 59.5 km/h 92 % 12.7 mm
10:19 -12.6 °C -13.3 °C 34130.9 hPa WSW 17.9 km/h 54.4 km/h 92 % 12.7 mm
10:25 -12.6 °C -13.4 °C 34120.7 hPa West 28.5 km/h 64.7 km/h 91 % 12.7 mm
10:31 -12.6 °C -13.4 °C 34130.9 hPa WSW 38.8 km/h 75.2 km/h 90 % 12.7 mm
10:37 -12.4 °C -13.4 °C 34130.9 hPa West 26.2 km/h 46.7 km/h 89 % 12.7 mm
10:43 -12.4 °C -13.3 °C 34130.9 hPa WSW 41.7 km/h 49.2 km/h 89 % 7.62 mm
10:49 -12.3 °C -13.3 °C 34144.4 hPa West 38.8 km/h 59.5 km/h 89 % 0 mm
10:55 -12.3 °C -13.3 °C 34144.4 hPa West 23 km/h 44.1 km/h 89 % 0 mm
11:01 -12.3 °C -13.3 °C 34144.4 hPa SW 44.1 km/h 54.4 km/h 89 % 0 mm
11:11 -12.3 °C -13.3 °C 34144.4 hPa West 26.2 km/h 51.8 km/h 88 % 0 mm
11:17 -12.2 °C -13.2 °C 34154.6 hPa West 31.4 km/h 49.2 km/h 88 % 0 mm
11:23 -12.2 °C -13.3 °C 34144.4 hPa West 26.2 km/h 49.2 km/h 87 % 0 mm
11:33 -12.4 °C -13.3 °C 34144.4 hPa SSW 17.9 km/h 46.7 km/h 90 % 12.7 mm
11:45 -12.4 °C -13.3 °C 34144.4 hPa West 51.5 km/h 59.5 km/h 90 % 12.7 mm
11:51 -12.3 °C -13.2 °C 34130.9 hPa WNW 15.6 km/h 44.1 km/h 90 % 20.32 mm
11:57 -12.1 °C -13.1 °C 34130.9 hPa WSW 56.6 km/h 64.7 km/h 89 % 20.32 mm
12:03 -12 °C -13.2 °C 34130.9 hPa WSW 51.5 km/h 69.8 km/h 86 % 20.32 mm
12:15 -11.8 °C -13.3 °C 34130.9 hPa WSW 54.4 km/h 72.6 km/h 84 % 20.32 mm
12:21 -11.7 °C -13.6 °C 34130.9 hPa West 56.6 km/h 82.9 km/h 80 % 20.32 mm
12:27 -11.7 °C -13.4 °C 34120.7 hPa WSW 38.8 km/h 46.7 km/h 82 % 12.7 mm
12:37 -11.7 °C -13.5 °C 34120.7 hPa West 44.1 km/h 54.4 km/h 80 % 7.62 mm
12:44 -11.6 °C -13.5 °C 34107.2 hPa West 44.1 km/h 54.4 km/h 79 % 7.62 mm
12:54 -11.5 °C -13.6 °C 34107.2 hPa West 26.2 km/h 54.4 km/h 78 % 0 mm
13:00 -11.5 °C -13.7 °C 34120.7 hPa West 41.7 km/h 54.4 km/h 77 % 0 mm
13:10 -11.4 °C -13.7 °C 34120.7 hPa West 33.6 km/h 57 km/h 76 % 0 mm
13:12 -11.4 °C -13.8 °C 34120.7 hPa West 54.4 km/h 69.8 km/h 75 % 0 mm
13:18 -11.4 °C -13.9 °C 34107.2 hPa West 49.2 km/h 67.3 km/h 74 % 0 mm
13:24 -11.5 °C -13.9 °C 34120.7 hPa WNW 33.6 km/h 49.2 km/h 75 % 0 mm
13:30 -11.5 °C -14 °C 34107.2 hPa WNW 41.7 km/h 72.6 km/h 74 % 0 mm
13:36 -11.4 °C -14.1 °C 34107.2 hPa WNW 31.4 km/h 69.8 km/h 73 % 0 mm
13:42 -11.4 °C -13.9 °C 34120.7 hPa West 12.7 km/h 46.7 km/h 74 % 0 mm
13:48 -11.5 °C -13.9 °C 34107.2 hPa West 23 km/h 38.8 km/h 75 % 0 mm
13:54 -11.4 °C -13.7 °C 34107.2 hPa West 31.4 km/h 46.7 km/h 76 % 0 mm
14:00 -11.3 °C -13.7 °C 34097 hPa WSW 31.4 km/h 44.1 km/h 75 % 0 mm
14:06 -11.4 °C -13.8 °C 34097 hPa WSW 41.7 km/h 54.4 km/h 75 % 0 mm
14:12 -11.4 °C -13.8 °C 34097 hPa West 36.5 km/h 67.3 km/h 75 % 0 mm
14:18 -11.6 °C -13.9 °C 34097 hPa WSW 23 km/h 59.5 km/h 75 % 0 mm
14:24 -11.6 °C -13.9 °C 34097 hPa West 38.8 km/h 75.2 km/h 76 % 0 mm
14:30 -11.6 °C -13.8 °C 34086.9 hPa West 28.5 km/h 54.4 km/h 77 % 0 mm
14:40 -11.6 °C -13.8 °C 34086.9 hPa West 31.4 km/h 41.4 km/h 77 % 0 mm
14:48 -11.6 °C -13.8 °C 34073.3 hPa WSW 44.1 km/h 64.7 km/h 77 % 0 mm
14:54 -11.6 °C -13.7 °C 34073.3 hPa WSW 46.3 km/h 49.2 km/h 77 % 0 mm
15:00 -11.6 °C -13.8 °C 34073.3 hPa WSW 49.2 km/h 72.6 km/h 76 % 0 mm
15:06 -11.5 °C -13.8 °C 34073.3 hPa West 31.4 km/h 57 km/h 76 % 0 mm
15:12 -11.6 °C -13.7 °C 34063.2 hPa West 33.6 km/h 46.7 km/h 77 % 0 mm
15:18 -11.6 °C -13.8 °C 34073.3 hPa WSW 31.4 km/h 44.1 km/h 77 % 0 mm
15:24 -11.9 °C -13.6 °C 34073.3 hPa WSW 31.4 km/h 59.5 km/h 81 % 0 mm
15:30 -11.9 °C -13.6 °C 34063.2 hPa West 26.2 km/h 54.4 km/h 81 % 0 mm
15:36 -11.9 °C -13.6 °C 34049.6 hPa West 28.5 km/h 46.7 km/h 81 % 0 mm
15:42 -11.9 °C -13.7 °C 34063.2 hPa WSW 54.4 km/h 64.7 km/h 80 % 0 mm
15:48 -11.8 °C -13.7 °C 34063.2 hPa West 26.2 km/h 62.1 km/h 79 % 0 mm
15:54 -11.8 °C -13.7 °C 34049.6 hPa WSW 36.5 km/h 62.1 km/h 80 % 7.62 mm
16:00 -11.9 °C -13.6 °C 34049.6 hPa West 26.2 km/h 62.1 km/h 81 % 7.62 mm
16:12 -11.9 °C -13.4 °C 34049.6 hPa WSW 49.2 km/h 59.5 km/h 83 % 7.62 mm
16:16 -11.9 °C -13.4 °C 34049.6 hPa West 33.6 km/h 57 km/h 83 % 7.62 mm
16:18 -11.9 °C -13.4 °C 34049.6 hPa WSW 46.3 km/h 57 km/h 83 % 7.62 mm
16:26 -12.1 °C -13.6 °C 34039.5 hPa WSW 38.8 km/h 46.7 km/h 83 % 7.62 mm
16:32 -12 °C -13.6 °C 34049.6 hPa SW 49.2 km/h 67.3 km/h 83 % 7.62 mm
16:38 -12 °C -13.6 °C 34049.6 hPa West 28.5 km/h 41.4 km/h 83 % 7.62 mm
16:44 -11.9 °C -13.6 °C 34049.6 hPa WSW 46.3 km/h 57 km/h 82 % 7.62 mm
16:50 -12.2 °C -13.6 °C 34049.6 hPa WNW 56.6 km/h 64.7 km/h 84 % 7.62 mm
17:02 -12.4 °C -13.9 °C 34063.2 hPa WSW 26.2 km/h 67.3 km/h 83 % 7.62 mm
17:08 -12.4 °C -13.7 °C 34049.6 hPa West 20.9 km/h 33.6 km/h 85 % 7.62 mm
17:14 -12.4 °C -13.7 °C 34063.2 hPa WNW 26.2 km/h 26.2 km/h 85 % 7.62 mm
17:24 -12.4 °C -13.8 °C 34063.2 hPa West 41.7 km/h 54.4 km/h 84 % 7.62 mm
17:30 -12.4 °C -13.8 °C 34063.2 hPa West 33.6 km/h 64.7 km/h 85 % 12.7 mm
17:36 -12.6 °C -13.9 °C 34063.2 hPa West 38.8 km/h 64.7 km/h 85 % 12.7 mm
17:48 -12.8 °C -14.1 °C 34063.2 hPa West 28.5 km/h 46.7 km/h 86 % 12.7 mm
18:00 -12.8 °C -13.9 °C 34073.3 hPa SW 12.7 km/h 33.6 km/h 88 % 12.7 mm
18:06 -12.9 °C -13.8 °C 34063.2 hPa West 28.5 km/h 62.1 km/h 89 % 33.02 mm
18:12 -12.9 °C -13.9 °C 34049.6 hPa WNW 20.9 km/h 57 km/h 88 % 33.02 mm
18:18 -12.8 °C -13.9 °C 34049.6 hPa WSW 38.8 km/h 44.1 km/h 87 % 33.02 mm
18:24 -12.7 °C -14.1 °C 34049.6 hPa West 20.9 km/h 38.8 km/h 85 % 33.02 mm
18:30 -12.7 °C -14.1 °C 34049.6 hPa WSW 23 km/h 46.7 km/h 85 % 25.4 mm
18:36 -12.7 °C -14 °C 34063.2 hPa West 23 km/h 59.5 km/h 85 % 25.4 mm
18:42 -12.7 °C -14 °C 34049.6 hPa WSW 28.5 km/h 38.8 km/h 85 % 20.32 mm
18:50 -12.6 °C -14.2 °C 34049.6 hPa WNW 31.4 km/h 49.2 km/h 82 % 20.32 mm
18:56 -12.6 °C -14.4 °C 34063.2 hPa WSW 44.1 km/h 62.1 km/h 80 % 20.32 mm
19:02 -12.6 °C -14.5 °C 34063.2 hPa West 38.8 km/h 57 km/h 79 % 12.7 mm
19:08 -12.6 °C -14.6 °C 34063.2 hPa West 38.8 km/h 54.4 km/h 78 % 0 mm
19:16 -12.6 °C -14.6 °C 34063.2 hPa West 17.9 km/h 44.1 km/h 78 % 0 mm
19:22 -12.7 °C -14.5 °C 34063.2 hPa West 15.6 km/h 28.5 km/h 80 % 0 mm
19:28 -12.8 °C -14.5 °C 34063.2 hPa West 20.9 km/h 23.3 km/h 81 % 0 mm
19:34 -12.8 °C -14.6 °C 34049.6 hPa NW 7.6 km/h 18.2 km/h 81 % 0 mm
19:40 -12.9 °C -14.6 °C 34063.2 hPa WSW 10.3 km/h 20.8 km/h 82 % 0 mm
19:50 -13.1 °C -14.5 °C 34063.2 hPa West 17.9 km/h 18.2 km/h 84 % 0 mm
19:58 -13.2 °C -14.7 °C 34063.2 hPa West 10.3 km/h 28.5 km/h 83 % 0 mm
20:10 -13 °C -14.9 °C 34063.2 hPa West 33.6 km/h 44.1 km/h 79 % 0 mm
20:16 -13 °C -15 °C 34073.3 hPa West 38.8 km/h 49.2 km/h 78 % 0 mm
20:22 -12.9 °C -15.1 °C 34063.2 hPa WSW 33.6 km/h 46.7 km/h 76 % 0 mm
20:28 -12.8 °C -15.2 °C 34063.2 hPa WSW 51.5 km/h 57 km/h 75 % 0 mm
20:34 -12.8 °C -15.1 °C 34063.2 hPa WSW 33.6 km/h 49.2 km/h 76 % 7.62 mm
20:54 -12.9 °C -14.7 °C 34073.3 hPa SW 31.4 km/h 44.1 km/h 81 % 7.62 mm
21:00 -13 °C -14.7 °C 34073.3 hPa WSW 28.5 km/h 54.4 km/h 81 % 7.62 mm
21:10 -13.5 °C -15 °C 34063.2 hPa West 44.1 km/h 85.5 km/h 83 % 12.7 mm
21:16 -13.7 °C -14.9 °C 34063.2 hPa WSW 28.5 km/h 49.2 km/h 86 % 12.7 mm
21:22 -13.6 °C -14.7 °C 34073.3 hPa West 23 km/h 46.7 km/h 87 % 12.7 mm
21:28 -13.7 °C -14.8 °C 34073.3 hPa West 17.9 km/h 33.6 km/h 87 % 12.7 mm
21:34 -13.6 °C -14.7 °C 34063.2 hPa SW 20.9 km/h 49.2 km/h 87 % 7.62 mm
21:40 -13.5 °C -14.6 °C 34063.2 hPa WSW 33.6 km/h 54.4 km/h 87 % 7.62 mm
21:52 -13.6 °C -14.7 °C 34063.2 hPa WSW 44.1 km/h 51.8 km/h 87 % 12.7 mm
22:00 -13.8 °C -14.8 °C 34063.2 hPa WSW 33.6 km/h 38.8 km/h 88 % 12.7 mm
22:06 -13.8 °C -14.8 °C 34063.2 hPa West 15.6 km/h 36.2 km/h 89 % 12.7 mm
22:14 -13.8 °C -14.7 °C 34063.2 hPa WNW 10.3 km/h 23.3 km/h 90 % 12.7 mm
22:20 -13.8 °C -14.7 °C 34063.2 hPa West 12.7 km/h 23.3 km/h 90 % 12.7 mm
22:28 -13.8 °C -14.8 °C 34063.2 hPa West 33.6 km/h 46.7 km/h 88 % 12.7 mm
22:34 -13.7 °C -14.9 °C 34073.3 hPa SW 41.7 km/h 41.7 km/h 86 % 12.7 mm
22:41 -13.7 °C -15 °C 34063.2 hPa SW 41.7 km/h 51.8 km/h 85 % 12.7 mm
22:46 -13.6 °C -14.9 °C 34063.2 hPa West 20.9 km/h 54.4 km/h 84 % 12.7 mm
22:52 -13.6 °C -14.9 °C 34063.2 hPa WSW 28.5 km/h 33.6 km/h 84 % 12.7 mm
22:58 -13.6 °C -15.1 °C 34063.2 hPa WSW 33.6 km/h 46.7 km/h 83 % 7.62 mm
23:04 -13.5 °C -15.1 °C 34063.2 hPa SW 31.4 km/h 51.8 km/h 82 % 7.62 mm
23:11 -13.5 °C -15.1 °C 34063.2 hPa WSW 46.3 km/h 54.4 km/h 82 % 7.62 mm
23:17 -13.5 °C -15.2 °C 34049.6 hPa WNW 23 km/h 49.2 km/h 81 % 7.62 mm
23:25 -13.5 °C -15.2 °C 34063.2 hPa West 44.1 km/h 46.7 km/h 81 % 7.62 mm
23:31 -13.5 °C -15.1 °C 34049.6 hPa SW 28.5 km/h 44.1 km/h 82 % 7.62 mm
23:43 -13.6 °C -15.3 °C 34063.2 hPa West 54.4 km/h 62.1 km/h 81 % 0 mm
23:49 -13.6 °C -15.3 °C 34063.2 hPa WSW 23 km/h 62.1 km/h 81 % 0 mm
23:55 -13.6 °C -15.3 °C 34063.2 hPa West 38.8 km/h 54.4 km/h 81 % 0 mm
Meteo18
Compliments of Weather Underground - 4 mb

Script developed by  Jim McMurry - jmcmurry@mwt.net Adapted for the template by  Wim van der Kuil - Leuven-Template.eu

You find our weather info also at:

European Weather Network

Weather Underground

Equipment we use:

Weather-station
Davis Vue

Weather-program
Meteobridge

Weather-server
Raspberry PI 2 B+

Provider
1 and 1

Davis Vue

Meteobridge

Raspberry PI 2 B+

1 and 1